Tracking 31030 objects as of 16-Jul-2025
HD Live streaming from Space Station
objects crossing your sky now

COSMOS 962

Track COSMOS 962 now!
10-day predictions
COSMOS 962 is classified as:


NORAD ID: 10459
Int'l Code: 1977-107A
Perigee: 968.8 km
Apogee: 1,009.7 km
Inclination: 82.9 °
Period: 104.7 minutes
Semi major axis: 7360 km
RCS: 1.6429 m2 (large)
Launch date: October 28, 1977
Source: Commonwealth of Independent States (former USSR) (CIS)
Launch site: PLESETSK MISSILE AND SPACE COMPLEX (PKMTR)
Your satellite tracking list
Your tracking list is empty




NASA's NSSDC Master Catalog

Two Line Element Set (TLE):
1 10459U 77107A   25196.94745634  .00000016  00000-0  10130-5 0  9993
2 10459  82.9495  28.3328 0027777 332.8770 140.6428 13.74871399393196
Source of the keplerian elements: AFSPC